Airfield :
LOGIN :

Register | Disclaimer

   EN    FR    IT 

 










Legend :    VFR   Marginal VFR   IFR   Intensive IFR   Very Intensive IFR
Visi :
Ceiling :
>= 8 km
>= 3000ft
5 to 8 km
1000 to 3000 ft
1500m to 5 km
500 to 1000 ft
800 to 1500m
200 to 500 ft
< 800m
< 200 ft
Symbols :   Thunderstorms  Fog  Heavy snow  Heavy precipitations  Wind > 20 kt
SIGMETs :     Misc.  Thunderstorms  Icing  Turbulence  Mountain Waves  Volcanic Ashes







- Airport Elevation : 392 ft
- IATA code : CDG
- Download approach charts


LFPG - Paris-Aeroport Charles De Gaulle

CURRENT METAR :
  • 160600Z 22010KT 9999 FEW019 SCT050 15/11 Q1021 NOSIG

EXPIRED METARs :
  • 160530Z 21008KT 9999 FEW018 SCT048 BKN093 15/11 Q1020 NOSIG
  • 160500Z 21009KT 9999 FEW016 SCT052 BKN100 15/11 Q1020 NOSIG
  • 160430Z 21011KT 9999 FEW019 BKN040 15/11 Q1020 NOSIG
  • 160400Z 22010KT 9999 FEW019 SCT040 BKN100 15/11 Q1020 NOSIG
  • 160330Z 22011KT 9999 FEW032 BKN095 14/11 Q1020 NOSIG

TAF TAF LFPG
Valid from the 16 at 06:00 until the 17 at 12:00 UTC


160500Z 1606/1712 21010KT 9999 FEW020 BKN040 TX25/1712Z TN13/1704Z
PROB30
TEMPO 1611/1613 FEW040TCU
BECMG 1621/1623 14003KT
ATIS : +33 1 48 62 10 92
No reported NOTAMs for that airfield.



MET'MAP, your aeronautical weather chart ! - Copyright ORBIFLY December 2007 - Disclaimer

ORBIFLY MET'MAP TEAM :

Programming & Development : Alexandra Zaïnal
Concept & Development : Baudouin d'Aumeries
Co-Development & Prog : Marc-Olivier Méhu
Technical & hardware support : Manuel Goepfert

Contact : metmap@orbifly.com




SOURCES & CREDITS :

   NOAA